TimeCDT,TemperatureF,Dew PointF,Humidity,Sea Level PressureIn,VisibilityMPH,Wind Direction,Wind SpeedMPH,Gust SpeedMPH,PrecipitationIn,Events,Conditions,WindDirDegrees,DateUTC
12:15 AM,-9999,-9999,N/A,29.98,10.0,WSW,4.6,-,N/A,,Clear,250,2011-10-31 05:15:00
12:35 AM,-9999,-9999,N/A,29.99,10.0,WSW,4.6,-,N/A,,Clear,250,2011-10-31 05:35:00
12:55 AM,-9999,-9999,N/A,29.99,10.0,SW,4.6,-,N/A,,Partly Cloudy,230,2011-10-31 05:55:00
1:15 AM,-9999,-9999,N/A,30.00,10.0,WSW,4.6,-,N/A,,Scattered Clouds,250,2011-10-31 06:15:00
1:35 AM,-9999,-9999,N/A,30.00,10.0,West,3.5,-,N/A,,Mostly Cloudy,260,2011-10-31 06:35:00
1:55 AM,-9999,-9999,N/A,30.01,10.0,West,4.6,-,N/A,,Overcast,270,2011-10-31 06:55:00
2:15 AM,-9999,-9999,N/A,30.01,10.0,West,4.6,-,N/A,,Overcast,260,2011-10-31 07:15:00
2:35 AM,-9999,-9999,N/A,30.01,10.0,West,5.8,-,N/A,,Overcast,280,2011-10-31 07:35:00
2:55 AM,-9999,-9999,N/A,30.01,10.0,West,4.6,-,N/A,,Overcast,280,2011-10-31 07:55:00
3:15 AM,-9999,-9999,N/A,30.02,10.0,WNW,4.6,-,N/A,,Overcast,290,2011-10-31 08:15:00
3:35 AM,-9999,-9999,N/A,30.01,10.0,WNW,5.8,-,N/A,,Overcast,290,2011-10-31 08:35:00
3:55 AM,-9999,-9999,N/A,30.01,10.0,West,5.8,-,N/A,,Mostly Cloudy,280,2011-10-31 08:55:00
4:15 AM,-9999,-9999,N/A,30.01,10.0,West,5.8,-,N/A,,Mostly Cloudy,280,2011-10-31 09:15:00
4:35 AM,-9999,-9999,N/A,30.02,10.0,WNW,4.6,-,N/A,,Overcast,290,2011-10-31 09:35:00
4:55 AM,-9999,-9999,N/A,30.02,10.0,WNW,5.8,-,N/A,,Overcast,290,2011-10-31 09:55:00
5:15 AM,-9999,-9999,N/A,30.02,10.0,WNW,5.8,-,N/A,,Overcast,290,2011-10-31 10:15:00
5:35 AM,-9999,-9999,N/A,30.03,10.0,WNW,5.8,-,N/A,,Overcast,290,2011-10-31 10:35:00
5:55 AM,-9999,-9999,N/A,30.03,10.0,WNW,4.6,-,N/A,,Scattered Clouds,290,2011-10-31 10:55:00
6:15 AM,-9999,-9999,N/A,30.03,10.0,West,4.6,-,N/A,,Clear,280,2011-10-31 11:15:00
6:55 AM,-9999,-9999,N/A,30.03,10.0,West,4.6,-,N/A,,Mostly Cloudy,260,2011-10-31 11:55:00
7:15 AM,-9999,-9999,N/A,30.03,10.0,West,5.8,-,N/A,,Overcast,270,2011-10-31 12:15:00
7:35 AM,-9999,-9999,N/A,30.04,10.0,West,5.8,-,N/A,,Overcast,270,2011-10-31 12:35:00
7:55 AM,-9999,-9999,N/A,30.05,10.0,West,5.8,-,N/A,,Scattered Clouds,270,2011-10-31 12:55:00
8:15 AM,-9999,-9999,N/A,30.06,10.0,West,5.8,-,N/A,,Clear,270,2011-10-31 13:15:00
8:35 AM,-9999,-9999,N/A,30.07,10.0,West,5.8,-,N/A,,Clear,270,2011-10-31 13:35:00
8:55 AM,-9999,-9999,N/A,30.08,10.0,West,4.6,-,N/A,,Clear,270,2011-10-31 13:55:00
9:15 AM,-9999,-9999,N/A,30.08,10.0,West,6.9,-,N/A,,Clear,270,2011-10-31 14:15:00
9:35 AM,-9999,-9999,N/A,30.08,10.0,West,5.8,-,N/A,,Clear,270,2011-10-31 14:35:00
9:55 AM,-9999,-9999,N/A,30.09,10.0,WNW,9.2,-,N/A,,Partly Cloudy,290,2011-10-31 14:55:00
10:15 AM,-9999,-9999,N/A,30.09,10.0,WNW,8.1,-,N/A,,Partly Cloudy,300,2011-10-31 15:15:00
10:35 AM,-9999,-9999,N/A,30.09,10.0,NW,9.2,-,N/A,,Clear,310,2011-10-31 15:35:00
10:55 AM,-9999,-9999,N/A,30.09,10.0,WNW,5.8,-,N/A,,Scattered Clouds,300,2011-10-31 15:55:00
11:15 AM,-9999,-9999,N/A,30.10,10.0,WNW,6.9,-,N/A,,Overcast,300,2011-10-31 16:15:00
11:35 AM,-9999,-9999,N/A,30.09,10.0,North,8.1,-,N/A,,Overcast,350,2011-10-31 16:35:00
11:55 AM,-9999,-9999,N/A,30.10,10.0,NNW,5.8,-,N/A,,Mostly Cloudy,330,2011-10-31 16:55:00
12:15 PM,-9999,-9999,N/A,30.09,10.0,North,4.6,-,N/A,,Mostly Cloudy,350,2011-10-31 17:15:00
12:35 PM,-9999,-9999,N/A,30.10,10.0,WNW,6.9,-,N/A,,Overcast,290,2011-10-31 17:35:00
12:55 PM,-9999,-9999,N/A,30.08,10.0,WNW,5.8,-,N/A,,Overcast,290,2011-10-31 17:55:00
1:15 PM,-9999,-9999,N/A,30.08,10.0,Calm,Calm,-,N/A,,Overcast,0,2011-10-31 18:15:00
1:35 PM,-9999,-9999,N/A,30.07,10.0,NNW,6.9,-,N/A,,Mostly Cloudy,340,2011-10-31 18:35:00
1:55 PM,-9999,-9999,N/A,30.07,10.0,West,6.9,-,N/A,,Mostly Cloudy,260,2011-10-31 18:55:00
2:15 PM,-9999,-9999,N/A,30.07,10.0,West,6.9,-,N/A,,Mostly Cloudy,260,2011-10-31 19:15:00
2:35 PM,-9999,-9999,N/A,30.07,10.0,West,10.4,-,N/A,,Mostly Cloudy,280,2011-10-31 19:35:00
2:55 PM,-9999,-9999,N/A,30.06,10.0,West,12.7,20.7,N/A,,Mostly Cloudy,270,2011-10-31 19:55:00
3:15 PM,-9999,-9999,N/A,30.07,10.0,WSW,11.5,16.1,N/A,,Mostly Cloudy,250,2011-10-31 20:15:00
3:35 PM,-9999,-9999,N/A,30.07,10.0,West,8.1,-,N/A,,Mostly Cloudy,280,2011-10-31 20:35:00
3:55 PM,-9999,-9999,N/A,30.06,10.0,West,4.6,-,N/A,,Partly Cloudy,260,2011-10-31 20:55:00
4:15 PM,-9999,-9999,N/A,30.07,10.0,West,5.8,-,N/A,,Clear,270,2011-10-31 21:15:00
4:35 PM,-9999,-9999,N/A,30.07,10.0,SW,5.8,-,N/A,,Clear,230,2011-10-31 21:35:00
5:15 PM,-9999,-9999,N/A,30.08,10.0,WSW,6.9,-,N/A,,Clear,240,2011-10-31 22:15:00
5:35 PM,-9999,-9999,N/A,30.08,10.0,WSW,6.9,-,N/A,,Clear,240,2011-10-31 22:35:00
5:55 PM,-9999,-9999,N/A,30.09,10.0,SW,5.8,-,N/A,,Clear,230,2011-10-31 22:55:00
6:15 PM,-9999,-9999,N/A,30.09,10.0,SW,3.5,-,N/A,,Clear,230,2011-10-31 23:15:00
6:35 PM,-9999,-9999,N/A,30.10,10.0,SW,3.5,-,N/A,,Clear,230,2011-10-31 23:35:00
7:15 PM,-9999,-9999,N/A,30.10,10.0,South,3.5,-,N/A,,Clear,190,2011-11-01 00:15:00
7:35 PM,-9999,-9999,N/A,30.10,10.0,South,4.6,-,N/A,,Clear,170,2011-11-01 00:35:00
7:55 PM,-9999,-9999,N/A,30.11,10.0,South,5.8,-,N/A,,Clear,180,2011-11-01 00:55:00
8:15 PM,-9999,-9999,N/A,30.11,10.0,SSE,5.8,-,N/A,,Clear,150,2011-11-01 01:15:00
8:35 PM,-9999,-9999,N/A,30.11,10.0,SE,3.5,-,N/A,,Clear,140,2011-11-01 01:35:00
9:15 PM,-9999,-9999,N/A,30.12,10.0,SSE,4.6,-,N/A,,Clear,150,2011-11-01 02:15:00
9:35 PM,-9999,-9999,N/A,30.12,10.0,SE,4.6,-,N/A,,Clear,140,2011-11-01 02:35:00
9:55 PM,-9999,-9999,N/A,30.12,10.0,SSE,6.9,-,N/A,,Clear,160,2011-11-01 02:55:00
10:15 PM,-9999,-9999,N/A,30.11,10.0,SSE,6.9,-,N/A,,Clear,160,2011-11-01 03:15:00
10:35 PM,-9999,-9999,N/A,30.11,10.0,SSE,6.9,-,N/A,,Clear,150,2011-11-01 03:35:00
10:55 PM,-9999,-9999,N/A,30.11,10.0,SE,5.8,-,N/A,,Clear,140,2011-11-01 03:55:00
11:15 PM,-9999,-9999,N/A,30.12,10.0,SSE,5.8,-,N/A,,Clear,150,2011-11-01 04:15:00
11:35 PM,-9999,-9999,N/A,30.12,10.0,SSE,5.8,-,N/A,,Clear,160,2011-11-01 04:35:00
11:55 PM,-9999,-9999,N/A,30.11,10.0,SSE,6.9,-,N/A,,Clear,150,2011-11-01 04:55:00